Hourly Data Report for October 22, 2015

All times are specified in Local Standard Time (LST). Add 1 hour to adjust for Daylight Saving Time where and when it is observed.

OTTAWA INTL A
ONTARIO

45°19'00.000" N
75°40'00.000" W
114.90 m
6106001
71628
YOW

Download Data

Hourly Data (October 2015)
Hourly Data Report for October 22, 2015
Temp Definition
°C
Dew Point Temp Definition
°C
Rel Hum Definition
%
Wind Dir Definition
10's deg

Wind Spd Definition
km/h
Visibility Definition
km
Stn Press Definition
kPa
Hmdx Definition


Wind Chill Definition


Weather Definition


TIME
00:00 Legend Double Dagger 5.6 1.3 74 5 12 24.1 100.43     Rain
01:00 Legend Double Dagger 4.9 2.8 86 7 13 24.1 100.37     Rain
02:00 Legend Double Dagger 4.4 2.6 88 8 14 24.1 100.31     Rain
03:00 Legend Double Dagger 4.7 3.8 94 10 17 16.1 100.13     LegendNANA
04:00 Legend Double Dagger 6.4 5.8 96 13 10 12.9 99.98     Rain
05:00 Legend Double Dagger 6.1 5.7 97 9 8 12.9 99.98     LegendNANA
06:00 Legend Double Dagger 6.5 6.1 97 10 5 12.9 99.92     LegendNANA
07:00 Legend Double Dagger 6.9 6.5 97 36 2 16.1 99.93     Mostly Cloudy
08:00 Legend Double Dagger 12.1 10.7 91 21 11 24.1 99.94     LegendNANA
09:00 Legend Double Dagger 15.3 11.5 78 23 26 24.1 99.94     LegendNANA
10:00 Legend Double Dagger 15.7 9.0 64 25 38 24.1 99.95     Mostly Cloudy
11:00 Legend Double Dagger 14.0 7.1 63 29 31 24.1 100.01     LegendNANA
12:00 Legend Double Dagger 15.9 6.4 53 27 22 24.1 100.02     LegendNANA
13:00 Legend Double Dagger 15.9 4.7 47 28 26 24.1 100.05     Mainly Clear
14:00 Legend Double Dagger 15.0 2.9 44 29 30 24.1 100.11     LegendNANA
15:00 Legend Double Dagger 14.1 3.0 47 27 26 24.1 100.17     LegendNANA
16:00 Legend Double Dagger 12.4 2.0 49 30 31 24.1 100.27     Mostly Cloudy
17:00 Legend Double Dagger 11.9 1.0 47 28 23 24.1 100.33     LegendNANA
18:00 Legend Double Dagger 10.2 2.6 59 30 28 24.1 100.50     LegendNANA
19:00 Legend Double Dagger 8.2 1.6 63 31 31 24.1 100.66     Cloudy
20:00 Legend Double Dagger 5.9 -1.7 58 32 31 24.1 100.76     LegendNANA
21:00 Legend Double Dagger 3.8 -4.7 54 31 26 24.1 100.88     LegendNANA
22:00 Legend Double Dagger 3.6 -4.4 56 31 19 24.1 100.91     Mainly Clear
23:00 Legend Double Dagger 2.9 -3.3 64 29 18 24.1 100.95     LegendNANA

Notes on Data Quality.

Legend

  • E = Estimated
  • M = Missing
  • NA = Not Available
  • ‡ = Partner data that is not subject to review by the National Climate Archives
Date modified: